This is the latest recevied weather packets stored in our database for station/object M0TJX-1. If no packets are shown the sender has not sent any weather packets the latest 10 day(s).
| Time | Temp. | Humidity | Pressure | Rain* | Wind** | Luminosity | Snow |
|---|---|---|---|---|---|---|---|
| 1788081018 | 19.44° C | 81% | 1009 hPa | 0 mm | - | - | - |
| 1788080118 | 18.33° C | 81% | 1009.1 hPa | 0 mm | - | - | - |
| 1788079218 | 17.78° C | 86% | 1009.1 hPa | 0 mm | - | - | - |
| 1788078318 | 16.67° C | 88% | 1009.2 hPa | 0 mm | - | - | - |
| 1788077418 | 16.67° C | 91% | 1009.2 hPa | 0 mm | - | - | - |
| 1788076518 | 16.11° C | 91% | 1009 hPa | 0 mm | - | - | - |
| 1788075618 | 16.11° C | 92% | 1009 hPa | 0 mm | - | - | - |
| 1788074718 | 15.56° C | 93% | 1009.2 hPa | 0 mm | - | - | - |
| 1788073818 | 15.56° C | 94% | 1009.1 hPa | 0 mm | - | - | - |
| 1788072918 | 15° C | 94% | 1009.1 hPa | 0 mm | - | - | - |
| 1788072018 | 15° C | 94% | 1008.8 hPa | 0 mm | - | - | - |
| 1788071118 | 15° C | 93% | 1008.8 hPa | 0 mm | - | - | - |
| 1788070218 | 15° C | 93% | 1008.7 hPa | 0 mm | - | - | - |
| 1788069318 | 15° C | 93% | 1008.6 hPa | 0 mm | - | - | - |
| 1788068418 | 15.56° C | 93% | 1008.6 hPa | 0 mm | - | - | - |
| 1788067518 | 15.56° C | 93% | 1008.5 hPa | 0 mm | - | - | - |
| 1788066618 | 16.11° C | 93% | 1008.5 hPa | 0 mm | - | - | - |
| 1788065718 | 16.11° C | 94% | 1008.3 hPa | 0 mm | - | - | - |
| 1788064818 | 16.11° C | 94% | 1008.5 hPa | 0 mm | - | - | - |
| 1788063918 | 16.11° C | 94% | 1008.5 hPa | 0 mm | - | - | - |
| 1788063019 | 16.67° C | 94% | 1008.4 hPa | 0 mm | - | - | - |
| 1788062119 | 16.67° C | 94% | 1008.3 hPa | 0 mm | - | - | - |
| 1788061219 | 16.67° C | 93% | 1008.2 hPa | 0 mm | - | - | - |
| 1788060319 | 16.67° C | 92% | 1008.2 hPa | 0 mm | - | - | - |
| 1788059419 | 16.67° C | 92% | 1008.1 hPa | 0 mm | - | - | - |
* Rain latest hour (hover to see other rain measurements)
** Current wind speed in m/s (hover to see current wind gust speed)